EHI
1 2 3 2 4 5 4 3 2 1 1 1 1 1 1 1 1 0 0 0 0 0 0 0 0 0 0 0 0 0 1 3 3 2 3 3 3 2 1 2 2 1 0
2 3 3 3 4 5 5 4 3 2 2 2 2 2 2 2 2 1 1 1 1 1 1 1 0 0 0 1 1 1 3 3 3 3 3 3 3 2 1 1 2 2 1
6 5 4 4 5 6 7 5 4 4 4 4 4 4 4 4 4 3 4 4 3 2 2 2 1 0 1 2 2 3 4 4 4 3 3 3 3 3 1 1 2 2 1
10 8 6 6 7 8 8 7 6 6 6 6 6 6 5 5 4 4 4 3 3 3 3 2 1 1 3 4 3 4 6 6 5 4 3 3 3 3 2 1 2 1 1
14 13 11 10 10 9 9 8 7 6 6 6 6 6 6 5 4 3 3 2 1 2 3 3 2 2 4 4 4 5 7 7 6 4 3 3 3 3 2 1 1 1 1
15 14 13 12 11 11 10 8 7 6 6 6 6 6 6 5 4 4 3 2 1 2 3 4 3 2 4 4 4 6 8 8 7 6 5 4 3 4 3 1 0 0 0
12 12 13 13 12 12 12 9 7 5 5 4 4 4 5 6 6 6 5 3 3 2 3 4 4 3 4 5 6 7 8 8 7 7 6 5 5 5 4 1 0 0 0
10 10 11 12 14 15 15 13 9 7 6 5 4 4 4 5 6 7 6 5 3 3 2 2 3 2 3 5 6 7 8 8 8 7 7 7 7 7 5 3 1 0 0
10 9 9 11 14 16 16 15 12 9 9 8 7 6 5 6 6 7 7 6 4 3 2 1 1 1 1 3 5 6 7 8 8 8 7 7 8 7 5 4 3 1 1
9 7 6 7 10 13 14 13 11 9 9 9 8 7 7 7 6 6 6 6 6 5 4 2 0 1 1 2 3 4 5 6 7 7 5 5 5 5 5 4 3 2 2
7 6 4 4 6 9 11 11 10 8 7 8 8 7 6 6 6 6 6 6 6 6 5 3 1 1 1 1 2 2 3 5 5 4 3 2 2 3 3 2 2 2 3
6 5 4 4 6 7 10 11 9 7 6 7 8 7 6 6 6 7 7 6 6 6 5 3 1 1 1 2 2 3 4 4 4 4 3 2 1 1 1 1 0 1 2
7 6 6 6 6 7 9 11 10 7 5 7 8 8 7 6 7 8 8 7 7 7 6 4 2 2 2 3 4 5 7 7 6 6 5 3 2 1 0 0 0 1 2
9 9 8 8 7 6 8 10 10 7 6 8 9 8 7 6 7 9 9 8 8 7 7 6 5 5 5 5 6 7 9 9 8 6 5 4 3 1 1 0 0 0 1
12 11 11 12 11 9 9 11 10 8 8 9 9 7 4 4 5 7 8 9 8 8 7 6 6 6 6 6 6 7 8 8 7 6 5 4 3 2 1 0 0 0 0
13 13 12 13 13 12 12 13 12 11 10 10 9 6 4 2 3 5 7 7 7 6 5 4 5 6 6 5 4 4 4 4 4 5 5 5 3 2 1 0 0 0 0
14 13 12 11 11 11 14 15 15 13 13 11 9 7 5 3 3 6 8 7 6 5 4 3 4 4 4 3 2 1 1 1 3 5 5 5 4 2 1 0 0 0 0
14 12 10 8 8 10 13 15 14 13 13 11 8 8 8 6 6 8 10 9 7 5 4 4 3 4 4 3 1 0 0 1 3 5 5 4 4 3 2 0 0 0 0
12 10 8 7 7 8 11 13 13 12 11 8 7 8 10 10 10 10 11 12 10 7 6 6 4 4 3 3 1 1 1 2 3 3 3 3 3 2 1 0 0 0 0
9 8 7 7 8 8 10 11 11 10 9 6 6 7 9 11 11 9 9 11 12 10 9 8 7 5 4 2 1 1 2 3 3 3 2 1 1 1 0 0 0 0 0
8 8 7 8 9 9 10 10 10 9 8 7 7 7 8 9 8 7 6 8 10 11 10 9 9 8 5 3 1 1 2 3 4 3 2 0 0 0 0 0 0 0 0
10 9 9 9 9 10 10 9 9 9 8 9 9 9 8 7 5 4 4 6 7 9 9 10 9 9 8 5 2 1 1 3 4 4 2 1 0 0 0 0 0 0 0
11 10 9 9 9 9 8 8 8 7 8 8 9 8 7 6 4 3 4 6 6 7 9 9 9 10 10 8 5 2 1 1 3 3 2 1 0 0 0 0 0 0 0
10 9 8 7 7 6 6 6 6 6 6 7 7 6 6 5 4 3 4 5 6 6 8 8 9 11 11 10 8 6 4 3 2 2 2 1 0 0 0 0 0 0 0
9 8 7 5 5 4 4 5 5 5 5 5 5 5 5 5 4 3 3 4 4 4 5 6 7 8 9 9 9 7 7 6 3 2 2 2 1 0 0 0 0 0 0
9 8 6 5 4 4 4 4 4 4 4 4 4 5 5 6 5 4 3 3 3 3 4 4 5 5 6 6 6 5 7 6 4 2 1 1 1 1 0 0 0 0 0
Wind_Speed
7 5 5 6 5 5 5 4 4 3 3 2 2 2 1 0 0 1 2 2 3 3 3 2 2 3 2 2 3 2 2 1 2 1 1 2 1 1 1 1 1 2 2
5 6 6 6 6 6 6 5 5 4 3 3 2 2 1 1 1 0 0 1 2 3 3 3 3 3 3 3 3 3 2 1 2 2 1 1 2 2 1 1 2 2 2
10 8 8 8 7 7 7 6 6 5 4 3 2 2 2 1 1 0 0 0 2 2 2 3 3 3 3 3 4 4 4 2 2 2 2 2 2 2 2 1 1 1 1
9 8 9 8 9 8 7 6 6 5 4 4 3 3 2 2 1 1 0 0 1 2 3 3 4 3 3 3 4 4 3 3 2 2 1 2 2 2 1 2 1 1 2
10 10 10 10 9 8 7 6 5 4 4 4 4 4 2 2 1 0 0 1 1 1 2 3 3 4 3 4 4 3 4 3 3 3 2 2 1 2 2 2 2 1 2
9 9 8 7 6 6 6 6 6 5 4 5 4 4 4 2 2 1 1 1 1 1 1 2 3 3 3 4 4 4 5 4 4 3 3 3 2 3 3 3 2 2 2
8 8 9 9 8 8 7 7 7 6 5 5 5 5 5 4 4 3 2 2 1 1 2 2 2 2 3 3 3 3 4 4 4 4 3 3 3 2 2 2 2 2 2
6 8 9 10 9 9 8 7 7 6 5 5 5 4 4 3 2 2 2 2 2 2 2 2 2 2 2 3 3 3 3 3 4 4 4 3 3 3 3 3 2 1 1
7 7 7 8 8 8 8 8 7 6 6 6 5 4 3 3 2 2 2 2 2 2 2 2 2 2 2 2 3 2 3 3 3 4 4 4 3 3 3 3 3 3 2
5 5 5 6 7 7 6 6 6 6 6 5 5 4 4 3 3 2 3 2 2 2 1 2 2 1 1 2 2 2 2 2 2 3 3 3 2 2 3 3 3 3 3
5 5 5 4 5 5 6 6 6 5 5 5 4 3 4 4 3 3 3 3 2 2 2 2 2 2 2 2 2 2 2 2 2 2 2 3 2 2 2 2 2 2 2
4 4 5 5 4 5 5 6 6 5 5 5 4 4 3 2 2 3 2 2 2 1 2 2 2 2 2 2 2 2 2 2 2 2 2 2 1 2 1 2 2 2 2
3 3 4 4 5 4 4 4 5 5 5 4 4 3 3 3 3 3 2 2 2 1 1 1 2 2 1 2 2 2 2 2 2 2 2 2 1 1 1 2 2 2 1
3 3 4 4 4 4 4 4 3 3 4 4 4 4 4 4 3 3 2 2 2 2 2 2 2 2 2 2 1 2 2 1 1 1 2 2 2 2 2 1 2 1 1
3 4 4 4 4 4 3 3 2 3 3 4 4 4 3 3 3 2 2 2 2 2 2 2 1 1 2 2 1 2 2 1 1 1 1 1 1 1 1 1 2 2 2
4 4 4 4 4 4 4 3 3 3 3 4 3 3 3 3 3 3 3 2 2 2 2 2 2 2 2 2 2 2 1 1 1 1 1 1 1 1 2 2 3 3 3
5 5 4 4 4 4 4 4 3 3 3 3 2 2 2 3 3 3 3 3 3 2 2 2 2 3 3 2 2 2 2 2 2 1 1 2 1 1 2 2 2 3 4
4 4 4 4 4 3 3 3 3 3 3 2 1 1 2 2 2 3 3 3 3 3 3 3 3 3 3 3 3 3 2 2 2 2 2 2 2 2 1 2 2 3 4
4 4 4 4 4 4 4 4 3 3 3 2 2 2 2 2 2 3 3 3 3 3 3 3 3 3 3 3 3 3 2 1 2 2 2 2 2 2 1 2 2 3 4
4 3 3 4 4 4 4 5 4 3 3 2 2 1 2 2 2 3 3 2 3 3 2 2 2 3 3 3 3 3 2 2 2 2 2 2 2 3 1 2 2 3 4
4 4 4 4 4 4 5 5 4 3 3 2 2 1 1 2 2 2 2 2 2 2 2 2 2 2 3 3 4 4 3 3 3 2 2 2 3 3 2 2 3 5 4
4 4 4 3 3 4 6 5 4 3 2 3 2 1 1 1 1 1 1 2 2 2 2 2 2 2 2 3 3 4 5 4 3 4 3 3 4 4 4 3 4 4 2
4 4 4 3 2 3 5 5 4 3 3 3 2 2 1 1 1 1 1 1 2 2 2 2 2 3 2 2 4 4 5 6 4 4 4 4 4 4 4 5 4 3 2
3 3 4 4 3 2 3 3 3 3 4 3 2 1 1 1 0 0 1 1 1 2 2 3 3 3 2 2 2 2 3 4 4 3 3 3 3 3 4 4 3 3 3
2 3 4 4 4 3 2 2 3 4 4 2 1 1 1 1 1 0 1 1 2 3 3 3 3 3 4 4 4 3 3 3 3 2 1 1 1 2 2 2 3 2 2
2 2 2 3 3 3 2 1 2 4 4 3 2 1 1 1 1 0 1 2 1 1 2 3 3 3 4 4 4 4 4 4 3 2 1 2 2 3 3 3 3 3 3
Wind_Direction
207 188 184 180 172 172 170 172 168 164 147 141 149 153 174 175 99 204 182 180 176 164 158 158 151 154 163 174 160 143 147 149 136 97 22 349 324 278 267 253 242 246 237
199 190 186 185 184 183 182 179 180 176 171 172 164 150 144 151 178 241 188 180 181 177 176 169 170 169 166 169 172 157 152 163 156 139 111 355 338 328 289 249 231 246 242
202 197 192 193 189 190 189 189 188 186 182 162 124 103 80 55 49 26 290 196 182 182 179 172 175 180 179 186 192 181 170 173 180 168 156 162 235 306 309 279 254 249 243
204 198 196 195 195 198 190 187 186 186 177 161 157 153 160 184 212 206 247 263 180 180 183 181 183 191 190 193 202 192 183 172 187 189 195 191 174 188 294 308 296 270 254
204 200 199 198 196 191 185 184 180 182 175 172 172 165 173 194 173 133 221 246 235 204 192 186 188 195 197 199 202 193 191 189 189 187 180 183 198 191 204 266 290 296 273
203 197 192 185 187 182 179 175 175 183 178 177 177 175 179 188 177 192 219 253 257 236 206 192 193 201 203 204 207 203 200 200 197 201 194 186 188 199 199 228 250 270 281
195 189 184 182 184 184 182 178 180 188 183 180 186 191 190 191 196 201 209 218 236 245 236 210 198 202 209 204 201 202 210 202 203 210 211 209 213 195 190 204 238 262 281
193 188 188 185 186 186 181 178 182 186 182 183 191 193 186 183 196 204 203 213 227 235 229 209 204 205 202 202 195 203 217 209 215 221 213 215 219 203 198 191 193 238 272
192 187 183 182 182 182 182 181 180 181 183 186 185 186 186 186 195 208 210 218 227 227 216 206 206 213 204 202 194 208 216 206 218 224 219 221 226 214 213 205 195 195 237
189 178 178 184 183 180 177 171 172 182 186 187 191 193 189 197 200 198 214 224 228 223 202 200 206 214 206 201 193 215 219 206 224 227 226 233 232 221 213 210 203 199 206
187 177 174 172 172 165 167 171 175 173 177 183 188 186 189 194 194 206 220 220 219 210 205 199 194 195 195 189 193 222 216 212 237 249 238 251 239 224 212 195 192 197 193
173 159 153 147 149 162 171 176 176 177 185 183 178 189 193 185 193 215 229 218 212 199 194 189 186 192 195 188 195 231 228 217 236 258 251 261 244 223 209 190 193 199 199
136 130 136 149 159 162 163 172 177 183 183 175 177 184 192 195 203 211 214 206 198 180 168 168 189 200 203 193 206 214 217 215 232 238 230 246 222 234 223 198 193 200 198
139 137 144 154 159 157 159 165 175 171 168 171 180 193 205 207 207 204 201 199 190 182 184 192 211 212 208 209 217 212 207 211 234 239 230 234 223 231 222 207 207 196 187
149 158 161 163 158 148 150 158 167 167 170 171 183 202 206 199 193 193 197 193 187 192 181 182 215 227 210 224 214 214 212 211 234 263 258 244 236 229 215 209 202 190 191
177 172 167 166 165 164 165 166 174 177 167 172 189 193 183 183 194 199 192 187 189 185 173 194 208 218 233 233 193 189 209 211 212 247 282 274 264 269 228 217 196 184 191
182 176 177 179 182 183 177 175 182 171 163 171 181 182 183 190 203 199 187 196 194 179 188 208 215 229 246 228 195 186 186 197 211 229 256 279 301 264 264 252 234 227 223
184 184 179 177 179 173 165 160 154 160 162 163 173 182 185 198 196 187 198 206 194 189 200 214 222 235 243 217 196 183 183 192 217 232 236 250 279 284 259 254 257 258 252
178 181 183 172 161 163 159 144 139 142 148 167 188 199 190 188 180 192 207 203 191 198 206 211 216 226 251 229 204 179 185 208 244 254 253 248 259 279 230 219 258 281 283
151 152 156 146 152 161 150 142 145 142 157 183 192 182 175 181 191 202 204 193 188 205 209 222 224 223 240 243 217 193 201 225 253 273 269 253 260 268 227 216 237 265 277
143 137 139 152 164 159 147 144 148 174 189 173 154 146 151 182 195 195 193 180 184 192 204 228 243 238 242 246 231 212 209 223 234 251 264 264 262 256 243 231 237 252 264
118 123 132 147 151 152 148 150 176 192 162 141 135 150 182 187 166 174 194 181 174 191 222 235 267 265 255 242 240 227 222 221 225 243 253 257 255 254 253 250 265 267 260
130 130 133 133 136 157 159 167 189 165 142 133 148 172 180 179 151 170 193 198 187 202 227 233 253 270 266 257 249 237 233 226 225 241 249 260 262 262 259 260 263 251 238
146 140 132 138 156 168 166 178 165 148 138 142 161 175 175 198 204 188 199 203 210 220 228 234 244 258 265 266 264 253 244 239 239 254 263 262 260 261 266 268 255 242 235
158 153 157 163 174 166 157 163 155 143 138 142 155 165 192 208 220 237 243 231 227 210 216 237 241 243 253 255 243 231 238 233 234 233 249 277 294 291 287 277 269 260 253
154 155 165 163 161 145 147 163 158 150 149 152 166 176 190 211 220 219 345 355 296 254 222 229 230 247 251 272 261 239 236 229 200 172 225 254 265 266 269 272 274 264 256